Phnom Penh, Cambodia

8:45 PM +07 on October 17, 2017 (GMT +0700)
Pochentong International

Weather History for VDPP - November, 2011

Change the Weather History Date:

Sunday, November 13, 2011

  Actual Average Record
Temperature  
Mean Temperature 84 °F -  
Max Temperature 93 °F 84 °F 93 °F (1999)
Min Temperature 75 °F 74 °F 73 °F (2001)
Cooling Degree Days 19    
Growing Degree Days 34 (Base 50)    
Moisture  
Dew Point 69 °F    
Average Humidity 54    
Maximum Humidity 79    
Minimum Humidity 41    
Precipitation  
Precipitation 0.00 in - - ()
Sea Level Pressure  
Sea Level Pressure 29.85 in    
Wind  
Wind Speed 6 mph ()    
Max Wind Speed 13 mph    
Max Gust Speed -    
Visibility 6.1 miles    
Events      
Averages and records for this station are not official NWS values.
T = Trace of Precipitation, MM = Missing Value Source: Averaged Metar Reports

Daily Weather History Graph

Daily Weather History Graph

Search for Another Location

Airport or City:

Trip Planner

Search our weather history database for the weather conditions in past years. The results will help you decide how hot, cold, wet, or windy it might be!

Date:

Astronomy

Nov. 13, 2011 Rise Set
Actual Time 5:56 AM +07 5:33 PM +07
Civil Twilight 5:34 AM +07 5:55 PM +07
Nautical Twilight 5:08 AM +07 6:20 PM +07
Astronomical Twilight 4:43 AM +07 6:46 PM +07
Moon 7:30 PM +07 (11/13) 7:44 AM +07 (11/13)
Length of Visible Light 12h 21m
Length of Day
11h 37m
Waning Gibbous, 95% of the Moon is Illuminated
Nov 13
Waning Gibbous
Nov 18
Last Quarter
Nov 25
New
Dec 2
First Quarter
Dec 10
Full

Hourly Weather History & Observations

Time (+07) Temp. Heat Index Dew Point Humidity Pressure Visibility Wind Dir Wind Speed Gust Speed Precip Events Conditions
6:00 AM 80.6 °F 85.4 °F 73.4 °F 79% 29.86 in 5.6 mi WNW 2.3 mph - N/A   Partly Cloudy
7:00 AM - - - % 29.89 in 6 mi SSW 2.2 mph - -   Partly Cloudy
7:00 AM 84.2 °F 88.4 °F 69.8 °F 62% 29.86 in 5.6 mi NNW 3.5 mph - N/A   Partly Cloudy
7:30 AM 84.2 °F 87.3 °F 68.0 °F 58% 29.86 in 5.6 mi NNE 6.9 mph - N/A   Partly Cloudy
8:00 AM 87.8 °F 92.6 °F 69.8 °F 55% 29.89 in - NNE 8.1 mph - N/A   Clear
8:30 AM 89.6 °F 93.4 °F 68.0 °F 49% 29.89 in - NNE 8.1 mph - N/A   Clear
9:00 AM 91.4 °F 95.4 °F 68.0 °F 46% 29.92 in - North 9.2 mph - N/A   Clear
9:30 AM 93.2 °F 98.8 °F 69.8 °F 46% 29.92 in - North 6.9 mph - N/A   Clear
10:00 AM 93.2 °F 98.8 °F 69.8 °F 46% 29.92 in 6.2 mi NE 10.4 mph - N/A   Mostly Cloudy
10:30 AM 91.4 °F 96.8 °F 69.8 °F 49% 29.92 in 6.2 mi NNE 11.5 mph - N/A   Mostly Cloudy
11:00 AM 91.4 °F 94.0 °F 66.2 °F 43% 29.89 in 6.2 mi North 11.5 mph - N/A   Partly Cloudy
11:30 AM 91.4 °F 96.8 °F 69.8 °F 49% 29.89 in 6.2 mi NNE 9.2 mph - N/A   Partly Cloudy
12:00 PM 93.2 °F 98.8 °F 69.8 °F 46% 29.86 in - North 9.2 mph - N/A   Clear
12:30 PM 93.2 °F 97.7 °F 68.0 °F 44% 29.86 in - NNE 9.2 mph - N/A   Clear
1:00 PM 93.2 °F 98.8 °F 69.8 °F 46% 29.83 in - North 10.4 mph - N/A   Clear
1:30 PM 91.4 °F 94.0 °F 66.2 °F 43% 29.80 in 6.2 mi NNE 10.4 mph - N/A   Partly Cloudy
2:00 PM 91.4 °F 93.2 °F 64.4 °F 41% 29.80 in 6.2 mi NNE 10.4 mph - N/A   Partly Cloudy
2:30 PM 91.4 °F 93.2 °F 64.4 °F 41% 29.80 in 6.2 mi North 12.7 mph - N/A   Partly Cloudy
3:00 PM 91.4 °F 94.0 °F 66.2 °F 43% 29.77 in 6.2 mi North 10.4 mph - N/A   Partly Cloudy
3:30 PM 91.4 °F 95.4 °F 68.0 °F 46% 29.77 in 6.2 mi NNW 9.2 mph - N/A   Partly Cloudy
4:00 PM 89.6 °F 93.4 °F 68.0 °F 49% 29.77 in - NNW 10.4 mph - N/A   Clear
4:30 PM 87.8 °F 91.4 °F 68.0 °F 52% 29.80 in - NNW 9.2 mph - N/A   Clear
5:00 PM 86.0 °F 87.3 °F 64.4 °F 48% 29.80 in - NNW 8.1 mph - N/A   Clear
5:30 PM 87.8 °F 92.6 °F 69.8 °F 55% 29.80 in - North 6.9 mph - N/A   Clear
6:00 PM 86.0 °F 90.4 °F 69.8 °F 58% 29.80 in - NNW 4.6 mph - N/A   Clear
6:30 PM 86.0 °F 90.4 °F 69.8 °F 58% 29.83 in 5.6 mi NNW 4.6 mph - N/A   Partly Cloudy
7:00 PM 86.0 °F 90.4 °F 69.8 °F 58% 29.83 in 5.6 mi NNW 4.6 mph - N/A   Partly Cloudy
7:30 PM 86.0 °F 91.8 °F 71.6 °F 62% 29.83 in 6.2 mi NNW 4.6 mph - N/A   Partly Cloudy
8:00 PM 86.0 °F 91.8 °F 71.6 °F 62% 29.86 in 6.2 mi North 3.5 mph - N/A   Partly Cloudy
8:30 PM 84.2 °F 89.6 °F 71.6 °F 66% 29.86 in 6.2 mi North 3.5 mph - N/A   Partly Cloudy
9:00 PM 84.2 °F 89.6 °F 71.6 °F 66% 29.86 in 6.2 mi NNW 3.5 mph - N/A   Partly Cloudy
9:30 PM 84.2 °F 89.6 °F 71.6 °F 66% 29.86 in 6.2 mi NNW 3.5 mph - N/A   Partly Cloudy
10:00 PM 84.2 °F 89.6 °F 71.6 °F 66% 29.86 in 6.2 mi NW 3.5 mph - N/A   Partly Cloudy
10:30 PM 84.2 °F 89.6 °F 71.6 °F 66% 29.86 in 6.2 mi NW 4.6 mph - N/A   Partly Cloudy
11:00 PM 84.2 °F 89.6 °F 71.6 °F 66% 29.86 in 6.2 mi NNW 3.5 mph - N/A   Partly Cloudy